Regional Weather Roundup
Issued by NWS Grand Forks, ND

Home | Current Version | Previous Version | Graphics & Text | Print | Product List | Glossary On
Versions: 1 2 3 4 5 6 7 8 9 10 11 12 13 14 15 16 17 18 19 20 21 22 23 24 25 26 27 28 29 30 31 32 33 34 35 36 37 38 39 40 41 42 43 44 45 46 47 48 49 50
000
ASUS43 KFGF 272010
RWRFGF
PRAIRIE TO PINES  WEATHER ROUNDUP
NATIONAL WEATHER SERVICE EASTERN NORTH DAKOTA/GRAND FORKS ND
300 PM CDT WED MAY 27 2015

 **SATELLITE DATA USED TO AUGMENT SKY COVER AT AUTOMATED STATIONS**
 *****  WEATHER ACROSS EASTERN NORTH DAKOTA  *****

CITY           SKY/WX    TMP DP  RH WIND       PRES   REMARKS
GRAND FORKS    SUNNY     74  50  42 N8        29.98R
GRAND FRKS AFB SUNNY     71  49  45 N8        29.99R
GRAND FRKS NWS   N/A     75 N/A N/A NW5         N/A
DEVILS LAKE    SUNNY     73  48  40 E8        29.97F
FARGO          SUNNY     80  54  40 N3        29.96S
WAHPETON ARPT  CLEAR     79  45  29 W5        29.97S
$$

 ***** WEATHER ACROSS CENTRAL AND WESTERN NORTH DAKOTA  *****

CITY           SKY/WX    TMP DP  RH WIND       PRES   REMARKS
BISMARCK       PTSUNNY   81  50  33 S17G23    29.94F
MINOT          MOSUNNY   78  50  37 NE12G18   29.93F
JAMESTOWN      LGT RAIN  73  45  36 NE13G21   29.95F
MINOT AFB      MOSUNNY   76  51  42 E10       29.93F
GARRISON         N/A     81  46  29 S12       29.92
WILLISTON      CLOUDY    79  43  27 SE8G18    29.87F
DICKINSON      CLOUDY    77  50  38 S16G24    29.88F
HETTINGER      CLOUDY    72  50  45 SE17G26   29.92F
$$

 *****  OTHER AIRPORT OBSERVATIONS IN OUR AREA  *****

CITY           SKY/WX    TMP DP  RH WIND       PRES   REMARKS
WALHALLA         N/A     68  45  42 MISG      30.01S
GRAFTON AIRPOR FAIR      72  48  43 N13       29.99S
VALLEY CITY AR   N/A     81  48  32 CALM      29.96F
CANDO          FAIR      73  46  38 NE8       29.99F
CAVALIER APRT  FAIR      68  45  42 NE9G17    30.00R
GWINNER        NOT AVBL
SHEYENNE NWR     N/A     84  53  34 SW3       29.95S
ROLLA          FAIR      68  45  42 NE9G22    30.02S
 ***** THE ABOVE OBSERVATIONS ARE NON NWS ARE NOT QUALITY
       CONTROLLED AND MAY MIS-REPORT RAIN FOR SNOW...
$$

  *****  WEATHER ACROSS NORTHERN MINNESOTA  *****

CITY           SKY/WX    TMP DP  RH WIND       PRES   REMARKS
FLAG ISLAND    SUNNY     64  45  48 NE7       29.97R
WARROAD        SUNNY     72  54  53 E8        29.98R
ROSEAU         SUNNY     73  46  38 NE8       29.96S
HALLOCK        SUNNY     72  46  40 N10       29.98S
THF RVR FALLS  SUNNY     73  48  40 N9        29.98R
BAUDETTE       SUNNY     69  47  45 N12       29.97R
WASKISH        SUNNY     73  54  49 SW6       29.95S
CROOKSTON      SUNNY     75  48  38 N8        29.97S
STEPHEN NDAWN    N/A     73  48  40 VRB9        N/A
GREENBUSH NDAW   N/A     72  48  43 N8          N/A
$$
  *****  WEATHER ACROSS CENTRAL AND WEST MINNESOTA  *****

CITY           SKY/WX    TMP DP  RH WIND       PRES   REMARKS
FOSSTON        SUNNY     79  48  34 W5        29.97S
BEMIDJI        SUNNY     79  50  36 W10       29.96R
PARK RAPIDS    SUNNY     83  46  27 NW9       29.95R
ELBOW LAKE     FAIR      79  54  42 N10       29.98R
WADENA         SUNNY     81  52  36 W8        29.96S
DETROIT LAKES  SUNNY     79  50  36 W9        29.99R
MOORHEAD       SUNNY     79  52  38 N8        29.97S
FERGUS FALLS   SUNNY     81  54  39 W6        29.96S
MORRIS MN      SUNNY     84  48  28 NW10G16   29.97S
STAPLES        SUNNY     81  48  32 W9        29.96R
$$
  *****  WEATHER ELSEWHERE ACROSS MINNESOTA  *****

CITY           SKY/WX    TMP DP  RH WIND       PRES   REMARKS
DULUTH         MOSUNNY   80  49  33 W13G20    29.90R
INTRNTL FALLS  PTSUNNY   76  51  41 N12       29.92R
ELY            NOT AVBL
CLOQUET        MOSUNNY   79  45  29 W12       29.91R
WHEATON        SUNNY     79  50  36 NW3       29.99S
BRAINERD       MOSUNNY   81  48  31 VRB5      29.95R
HIBBING        MOSUNNY   80  46  30 NW10G20   29.90R
ALEXANDRIA     SUNNY     80  50  34 NW7       29.99R
SAINT CLOUD    SUNNY     83  55  38 VRB6      29.95R
MINNEAPOLIS    SUNNY     81  56  42 SW12      29.95S
$$

  *****  WEATHER ACROSS SOUTH DAKOTA  *****

CITY           SKY/WX    TMP DP  RH WIND       PRES   REMARKS
SIOUX FALLS    MOSUNNY   82  52  35 SW8       30.01S
BROOKINGS      MOSUNNY   81  48  32 N5        30.01S
WATERTOWN      MOSUNNY   81  47  30 CALM      30.01S
HURON          PTSUNNY   80  48  32 S8        29.99S
SISSETON         N/A     83  45  26 VRB3      29.97S
ABERDEEN       MOSUNNY   83  50  31 S7        29.97F
MITCHELL       SUNNY     81  48  31 SW6       30.01S
PIERRE         MOSUNNY   78  50  37 S20G28    29.97F
MOBRIDGE       PTSUNNY   81  48  31 S13       29.94F
RAPID CITY     CLOUDY    66  56  70 S6        29.96R
$$

  *****  SOME WEATHER IN NEARBY STATES *****

CITY           SKY/WX    TMP DP  RH WIND       PRES   REMARKS
GLASGOW MT     PTSUNNY   68  55  63 SE12G20   29.91F
GREAT FALLS MT PTSUNNY   62  49  62 W13       30.00F
CHEYENNE WY    PTSUNNY   67  40  37 CALM      30.07F
SCOTTSBLUFF NE TSTM      56  52  86 NE8       30.04R
OMAHA NE       MOSUNNY   84  51  31 SW8       30.05F
DES MOINES IA  MOSUNNY   81  54  39 SW12G17   30.06R
DAVENPORT IA   SUNNY     77  57  50 NW9       30.05R
CHICAGO IL     CLOUDY    70  57  63 NW15      30.01R
EAU CLAIRE WI  SUNNY     79  59  50 W12       29.96R
LA CROSSE WI   MOSUNNY   82  59  45 W9        29.98S
$$

  *****  SOME NATIONAL WEATHER *****

CITY           SKY/WX    TMP DP  RH WIND       PRES   REMARKS
LA GUARDIA NY  MOSUNNY   76  62  62 S21G29    30.10F
RALEIGH NC     CLOUDY    85  68  56 W6        30.19F
ATLANTA GA     MOSUNNY   81  64  56 VRB3      30.20F
NEW ORLEANS LA CLOUDY    73  66  78 SE5       30.15F
OKLAHOMA CITY  PTSUNNY   79  66  64 SE13      30.07S
ALBUQUERQUE NM PTSUNNY   77  33  20 S10G16    30.13F
SALT LAKE CITY PTSUNNY   67  48  50 N6        30.02F
LOS ANGELES CA PTSUNNY   65  54  67 W13       30.01S
BOISE ID       MOSUNNY   71  45  39 CALM      29.97F
SEATTLE WA     MOSUNNY   69  54  58 W8        30.06F
$$

*** WEATHER ACROSS MANITOBA...SASKATCHEWAN AND ONTARIO ***
                ***ONTARIO***

CITY           SKY/WX    TMP DP  RH WIND       PRES   REMARKS
GERALDTON      PTSUNNY   59  43  55 N14G21    29.90R
THUNDER BAY    PTSUNNY   66  57  72 NE9       29.83R
SIOUX LOOKOUT  MOSUNNY   63  41  45 N8G18     29.97R
TORONTO        PTSUNNY   84  59  42 SW25G33   29.92F
BIG TROUT LK   SUNNY     48  18  29 N8        30.08S
PICKLE LAKE    MOSUNNY   54  34  47 NE6       30.02S
DRYDEN         SUNNY     66  43  42 N7        29.97R
KENORA         MOSUNNY   64  45  48 N6G20     30.00R
$$
                *** MANITOBA***

CITY           SKY/WX    TMP DP  RH WIND       PRES   REMARKS
BRANDON        CLOUDY    64  41  42 E12G17    30.03F
DAUPHIN        SUNNY     59  32  36 E13G20    30.07F
ISLAND LAKE    MOSUNNY   52  19  28 VRB6      30.12S
PILOT MOUND    NOT AVBL
THE PAS        MOSUNNY   59  27  29 VRB6      30.10F
THOMPSON       PTSUNNY   55  23  28 N15G21    30.10S
WINNIPEG       PTSUNNY   63  39  42 NE15      30.04S
LYNN LAKE      CLOUDY    57  25  28 S10       30.05F
CHURCHILL      PTSUNNY   34  23  64 NE10      30.20S
GILLAM         PTSUNNY   45  23  42 N8        30.14S
$$
                ***SASKATCHEWAN***

CITY           SKY/WX    TMP DP  RH WIND       PRES   REMARKS
ESTEVAN        CLOUDY    70  48  46 E17       29.96F
KINDERSLEY     MOSUNNY   70  50  49 E9        29.97F
LLOYDMINSTER   PTSUNNY   72  41  33 S7        29.95F
PRINCE ALBERT  NOT AVBL
REGINA         PTSUNNY   70  48  46 E12       29.97F
YORKTON        SUNNY     64  37  36 SE8G20    30.03S
N. BATTLEFORD  SUNNY     68  37  32 E7        30.01F
LA RONGE       MOSUNNY   63  28  27 SE10      30.01F
SASKATOON      PTSUNNY   66  37  34 VRB10     30.02F
SWIFT CURRENT  PTSUNNY   72  46  40 E13G28    29.93F
$$
NOTE: THESE ARE AUTOMATED STATIONS WITH LIMITED QUALITY CONTROL
      "FAIR" INDICATES FEW OR NO CLOUDS BELOW 12,000 FEET WITH NO
      SIGNIFICANT WEATHER AND/OR OBSTRUCTIONS TO VISIBILITY.
      SKY/WX - SKY CONDITION AND SIGNIFICANT WEATHER.
      TMP - AIR TEMPERATURE.    DP   - DEWPOINT TEMPERATURE.
      RH  - RELATIVE HUMIDITY.  PRES - PRESSURE.
      HX  - HEAT INDEX.         WCI  - WIND CHILL INDEX.
$



USA.gov is the U.S. government's official web portal to all federal, state and local government web resources and services.